Location: Barrio de Canyet
(41.4665°N, 2.2381°E)
Time: 03:13:55
(UTC+00:00)

Cosmos 1602 Rocket - Pass Details

Date: 09 April 2020
Orbit: 603 x 634 km, 82.5° (Epoch: 30 May)

Event Time Altitude Azimuth Distance (km) Brightness Sun altitude
Rises 18:48:32 0° 348° (NNW) 2,915 7.4 -5.1°
Reaches altitude 10° 18:50:48 10° 345° (NNW) 1,999 6.6 -5.5°
Maximum altitude 18:55:10 61° 266° (W) 700 4.2 -6.2°
Drops below altitude 10° 18:59:27 10° 186° (S) 1,964 6.0 -7.0°
Sets 19:01:40 0° 182° (S) 2,859 6.8 -7.4°
